W0PE-1 Weather Reports


Display with metric or nautical units.
time (UTC)temp
F
wind
direction
speed
MPH
gust
MPH
rain 1hr
in
rain 24hr
in
rain mn
in
humidity
%
barometer
mb
20260509094519 61 146 0.0 0.0 0.00 0.00 0.00 89 1012.7
20260509093019 61 146 0.0 1.0 0.00 0.00 0.00 89 1012.8
20260509091516 61 147 0.0 3.0 0.00 0.00 0.00 89 1012.9
20260509090016 61 148 0.0 2.0 0.00 0.00 0.00 88 1013.1
20260509084514 62 165 1.0 2.0 0.00 0.00 0.00 88 1013.1
20260509083015 61 209 0.0 0.0 0.00 0.00 0.00 88 1013.1
20260509081511 62 228 0.0 2.0 0.00 0.00 0.00 88 1013.3
20260509080010 62 251 0.0 3.0 0.00 0.00 0.00 88 1013.4
20260509074509 62 248 0.0 2.0 0.00 0.00 0.00 88 1013.5
20260509073008 62 246 0.0 3.0 0.00 0.00 0.00 87 1013.4
20260509071506 62 240 0.0 4.0 0.00 0.00 0.00 87 1013.4
20260509070004 62 215 0.0 2.0 0.00 0.00 0.00 87 1013.6
20260509064509 62 172 0.0 3.0 0.00 0.00 0.00 87 1013.7
20260509063003 62 232 0.0 3.0 0.00 0.00 0.00 86 1013.8
20260509061504 62 196 0.0 3.0 0.00 0.00 0.00 86 1013.8
20260509060004 62 202 0.0 1.0 0.00 0.00 0.00 85 1013.7
20260509054502 62 195 0.0 2.0 0.00 0.00 0.00 85 1013.8
20260509053002 62 215 0.0 1.0 0.00 0.00 0.00 84 1013.8
20260509051501 62 248 0.0 3.0 0.00 0.00 0.00 83 1013.9
20260509050101 63 242 0.0 2.0 0.00 0.00 0.00 82 1013.9
20260509044600 63 245 0.0 4.0 0.00 0.00 0.00 82 1013.8
20260509043104 63 235 1.0 3.0 0.00 0.00 0.00 80 1013.6
20260509041559 64 236 0.0 3.0 0.00 0.00 0.00 80 1013.4
20260509040100 64 186 0.0 2.0 0.00 0.00 0.00 79 1013.2
20260509034603 65 178 1.0 3.0 0.00 0.00 0.00 78 1013.1
20260509033058 65 185 1.0 5.0 0.00 0.00 0.00 77 1013.1
20260509031557 66 221 0.0 3.0 0.00 0.00 0.00 75 1013.0
20260509030057 67 231 1.0 7.0 0.00 0.00 0.00 74 1012.8
20260509024556 68 245 2.0 4.0 0.00 0.00 0.00 72 1012.5
20260509023056 69 179 2.0 4.0 0.00 0.00 0.00 71 1012.4
20260509021555 70 239 2.0 5.0 0.00 0.00 0.00 70 1012.2
20260509020055 70 181 2.0 8.0 0.00 0.00 0.00 68 1012.3
20260509014553 71 215 1.0 5.0 0.00 0.00 0.00 67 1012.2
20260509013053 72 234 3.0 9.0 0.00 0.00 0.00 66 1012.2
20260509011551 73 163 2.0 7.0 0.00 0.00 0.00 65 1012.1
20260509010051 74 202 2.0 9.0 0.00 0.00 0.00 63 1012.1
20260509004551 75 241 2.0 5.0 0.00 0.00 0.00 61 1012.0
20260509003049 76 177 2.0 6.0 0.00 0.00 0.00 61 1012.0
20260509001549 76 213 2.0 7.0 0.00 0.00 0.00 61 1012.0
20260509000048 76 236 1.0 7.0 0.00 0.00 0.00 60 1012.0
20260508234554 77 250 3.0 9.0 0.00 0.00 0.00 60 1012.1
20260508233049 77 226 2.0 6.0 0.00 0.00 0.00 59 1012.1
20260508231611 78 182 1.0 5.0 0.00 0.00 0.00 60 1012.2
20260508230055 78 203 2.0 7.0 0.00 0.00 0.00 59 1012.4
20260508224541 78 207 2.0 10.0 0.00 0.00 0.00 59 1012.6
20260508223043 78 252 4.0 9.0 0.00 0.00 0.00 60 1012.8
20260508221537 78 203 3.0 5.0 0.00 0.00 0.00 59 1013.0
20260508220038 77 163 2.0 8.0 0.00 0.00 0.00 60 1013.1
20260508214535 77 184 1.0 5.0 0.00 0.00 0.00 61 1013.2
20260508213031 77 202 2.0 7.0 0.00 0.00 0.00 61 1013.3
20260508211535 76 248 4.0 9.0 0.00 0.00 0.00 61 1013.4
20260508210028 77 234 4.0 9.0 0.00 0.00 0.00 61 1013.5
20260508204525 76 243 2.0 7.0 0.00 0.00 0.00 62 1013.8
20260508203027 76 256 3.0 9.0 0.00 0.00 0.00 62 1014.0
20260508201520 75 220 2.0 6.0 0.00 0.00 0.00 65 1014.1
20260508200016 75 260 2.0 6.0 0.00 0.00 0.00 65 1014.2
20260508194514 73 232 2.0 7.0 0.00 0.00 0.00 66 1014.4
20260508193015 73 284 1.0 5.0 0.00 0.00 0.00 67 1014.6
20260508191526 72 241 3.0 9.0 0.00 0.00 0.00 68 1014.8
20260508190007 71 240 3.0 7.0 0.00 0.00 0.00 70 1014.9
20260508184506 71 232 2.0 4.0 0.00 0.00 0.00 72 1015.0
20260508183004 70 185 2.0 7.0 0.00 0.00 0.00 74 1015.2
20260508181600 69 201 2.0 5.0 0.00 0.00 0.00 75 1015.3
20260508180124 68 222 2.0 7.0 0.00 0.00 0.00 79 1015.5
20260508174605 66 188 1.0 6.0 0.00 0.00 0.00 82 1015.6
20260508173051 65 171 1.0 4.0 0.00 0.00 0.00 84 1015.6
20260508171549 64 168 0.0 2.0 0.00 0.00 0.00 86 1015.6
20260508170046 63 168 1.0 5.0 0.00 0.00 0.00 88 1015.5
20260508164545 63 144 0.0 0.0 0.00 0.00 0.00 89 1015.6
20260508163042 62 133 0.0 2.0 0.00 0.00 0.00 90 1015.5
20260508161540 61 173 0.0 0.0 0.00 0.00 0.00 90 1015.6
20260508160039 61 173 0.0 0.0 0.00 0.00 0.00 90 1015.6
20260508154538 61 173 0.0 0.0 0.00 0.00 0.00 90 1015.6
20260508153038 60 173 0.0 0.0 0.00 0.00 0.00 91 1015.7
20260508151537 60 173 0.0 0.0 0.00 0.00 0.00 90 1015.8
20260508150036 60 173 0.0 0.0 0.00 0.00 0.00 90 1015.8
20260508144536 59 173 0.0 0.0 0.00 0.00 0.00 90 1015.8
20260508143034 59 173 0.0 1.0 0.00 0.00 0.00 90 1015.7
20260508141536 59 173 0.0 0.0 0.00 0.00 0.00 90 1015.7
20260508140032 59 173 0.0 0.0 0.00 0.00 0.00 90 1015.6
20260508134531 59 173 0.0 2.0 0.00 0.00 0.00 90 1015.6
20260508133030 59 173 0.0 1.0 0.00 0.00 0.00 89 1015.5
20260508131531 59 173 1.0 4.0 0.00 0.00 0.00 89 1015.4
20260508130028 60 173 1.0 3.0 0.00 0.00 0.00 89 1015.2
20260508124527 60 173 1.0 4.0 0.00 0.00 0.00 89 1015.1
20260508123028 60 173 1.0 4.0 0.00 0.00 0.00 89 1015.1
20260508121526 60 173 2.0 4.0 0.00 0.00 0.00 89 1014.9
20260508120033 60 172 1.0 4.0 0.00 0.00 0.00 88 1014.8
20260508114524 60 168 1.0 4.0 0.00 0.00 0.00 88 1014.8
20260508113023 60 155 0.0 2.0 0.00 0.00 0.00 88 1014.7
20260508111528 60 155 1.0 3.0 0.00 0.00 0.00 88 1014.7
20260508110022 60 207 0.0 1.0 0.00 0.00 0.00 88 1014.7
20260508104521 60 207 0.0 1.0 0.00 0.00 0.00 88 1014.6
20260508103025 60 207 0.0 0.0 0.00 0.00 0.00 88 1014.7
20260508101519 60 207 0.0 2.0 0.00 0.00 0.00 88 1014.8
20260508100020 60 207 1.0 3.0 0.00 0.00 0.00 88 1014.9